THOR ABLESTAR DEB

Satellite information

Favourite Embed

Satellite Type and Status

DEBRISIN ORBIT

Key statistics

Satellite THOR ABLESTAR DEB at a glance.

Uptime

23544

Days in orbit

Revolutions

≈ 14.1

Per day

Orbit

LEO

Low Earth Orbit

Inclination

66.7

Latest

Satellite identification and parameters

Extended collection of information and parameters for THOR ABLESTAR DEB.

Object identification

Identified? True

Debris? True

Object name: THOR ABLESTAR DEB

International designator: 1961-015BB

Object number (NORAD): 177

Object ID (CCSDS): 177

Country: UNITED STATES OF AMERICA (US)

Current information (Y/N): Y

RCS size: MEDIUM

Orbital parameters

Period: 101.784 minutes

Inclination: 66.6558 deg

SMA: 7221.24 km

Apoapsis: 924.646 km

Periapsis: 761.564 km

RAAN: 317.3542 deg

Eccentricy: 0.01129179

Argument of periapsis: 223.0802 deg

Mean anomaly: 136.141 deg

Mean motion: 14.14767503 rev/day

Mean motion (dot): -0.00000031 rev/day2

B* drag term: 0.000025428168 1/REarth

Two-line elements (TLE)

Creation date: Dec. 14, 2025, 3:07 a.m.

Reference frame: TEME

Reference center: EARTH

Epoch: Dec. 13, 2025, 3:08 p.m. UTC

TLE line 0: 0 THOR ABLESTAR DEB

TLE line 1: 1 00177U 61015BB 25347.63117071 -.00000031 00000-0 25428-4 0 9995

TLE line 2: 2 00177 66.6558 317.3542 0112918 223.0802 136.1410 14.14767503314919

Live tracking on map

Real-time ground track for satellite THOR ABLESTAR DEB.

In-orbit conjunctions

A list of the most updated potential collisions computed for object THOR ABLESTAR DEB.

Target Orbit TCA Probability of collision Miss distance Type
FENGYUN 1C DEB SSO 2025-07-10 07:52:59 0.0001103199 90.0 (m) DEBRIS
FENGYUN 1C DEB SSO 2024-11-12 22:29:29 0.0001542141 213.0 (m) DEBRIS

Associated space launch

THOR ABLESTAR DEB was lifted into orbit during the mission ‘Thor DM-21 Ablestar | Transit 4A & Injun-1 & Solrad 3’, on board a Thor DM-21 Ablestar space rocket.

The launch took place on June 29, 1961, 4:23 a.m. from Space Launch Complex 17B.

For more information about the launch, click the button.

Launch to space Thor DM-21 Ablestar | Transit 4A & Injun-1 & Solrad 3
Thor DM-21 Ablestar | Transit 4A & Injun-1 & Solrad 3

Agency: N/A

Status: Launch Successful

Launch date: June 29, 1961, 4:23 a.m. UTC

Rocket: Thor DM-21 Ablestar

Launch pad: Space Launch Complex 17B

Location: Cape Canaveral SFS, FL, USA

...

Latest news about this satellite

There are no fresh news available about this satellite. Check back as we update our databases every day.


Newsletter sign-up

Weekly statistics, charts and insights to help you stay on top of the space industry.